Weather History for Glenwood, MN

Change the Weather History Date:

Sunday, August 10, 2014

  Actual Average Record
Temperature  
Mean Temperature 71 °F -  
Max Temperature 78 °F 79 °F 96 °F (2007)
Min Temperature 64 °F 54 °F 43 °F (1982)
Cooling Degree Days 6    
Growing Degree Days 21 (Base 50)    
Moisture  
Dew Point 65 °F    
Average Humidity 90    
Maximum Humidity 100    
Minimum Humidity 65    
Precipitation  
Precipitation 2.12 in - - ()
Sea Level Pressure  
Sea Level Pressure 30.04 in    
Wind  
Wind Speed 7 mph (East)    
Max Wind Speed 24 mph    
Max Gust Speed 28 mph    
Visibility 7 miles    
Events Rain    
Averages and records for this station are not official NWS values.
T = Trace of Precipitation, MM = Missing Value Source: NWS Daily Summary

Daily Weather History Graph

Daily Weather History Graph

Search for Another Location

Airport:

Trip Planner

Search our weather history database for the weather conditions in past years. The results will help you decide how hot, cold, wet, or windy it might be!

Date:

Astronomy

Aug. 10, 2014 Rise Set
Actual Time 6:15 AM CDT 8:36 PM CDT
Civil Twilight 5:42 AM CDT 9:09 PM CDT
Nautical Twilight 5:01 AM CDT 9:50 PM CDT
Astronomical Twilight 4:14 AM CDT 10:36 PM CDT
Moon 8:19 PM CDT (8/10) 6:11 AM CDT (8/10)
Length of Visible Light 15h 27m
Length of Day
14h 21m
Full, 100% of the Moon is Illuminated
Aug 10
Full
Aug 10
Full
Aug 17
Last Quarter
Aug 25
New
Sep 2
First Quarter

Hourly Weather History & Observations

Time (CDT) Temp. Dew Point Humidity Pressure Visibility Wind Dir Wind Speed Gust Speed Precip Events Conditions
12:14 AM 64.4 °F 62.6 °F 94% 30.06 in 7.0 mi East 4.6 mph - N/A   Drizzle
12:34 AM 64.4 °F 62.6 °F 94% 30.05 in 7.0 mi East 6.9 mph - N/A Rain Light Rain
12:54 AM 64.4 °F 62.6 °F 94% 30.05 in 7.0 mi East 5.8 mph - N/A Rain Light Rain
1:14 AM 64.4 °F 62.6 °F 94% 30.05 in 7.0 mi East 5.8 mph - 0.01 in Rain Light Rain
1:34 AM 64.4 °F 62.6 °F 94% 30.05 in 5.0 mi ESE 5.8 mph - 0.01 in   Drizzle
1:54 AM 64.4 °F 62.6 °F 94% 30.05 in 4.0 mi SE 4.6 mph - 0.02 in Rain Light Rain
2:14 AM 64.4 °F 62.6 °F 94% 30.05 in 5.0 mi ESE 4.6 mph - 0.01 in Rain Light Rain
2:34 AM 64.4 °F 62.6 °F 94% 30.05 in 5.0 mi East 5.8 mph - 0.01 in Rain Light Rain
2:54 AM 64.4 °F 62.6 °F 94% 30.05 in 5.0 mi ESE 5.8 mph - 0.02 in   Drizzle
3:14 AM 64.4 °F 62.6 °F 94% 30.05 in 4.0 mi ESE 6.9 mph - 0.02 in Rain Rain
3:34 AM 64.4 °F 64.4 °F 100% 30.05 in 3.0 mi ESE 8.1 mph - 0.05 in Rain Rain
4:14 AM 64.4 °F 64.4 °F 100% 30.05 in 2.0 mi SSE 8.1 mph - 0.38 in Rain Heavy Rain
4:34 AM 64.4 °F 64.4 °F 100% 30.05 in 4.0 mi SE 12.7 mph 18.4 mph 0.73 in Rain Heavy Rain
4:54 AM 64.4 °F 64.4 °F 100% 30.03 in 7.0 mi ESE 9.2 mph 19.6 mph 0.96 in Rain Rain
5:14 AM 64.4 °F 64.4 °F 100% 30.03 in 7.0 mi SE 10.4 mph - 0.16 in Rain Rain
5:34 AM 64.4 °F 64.4 °F 100% 30.03 in 5.0 mi SE 11.5 mph - 0.23 in Rain Rain
5:54 AM 64.4 °F 64.4 °F 100% 30.03 in 3.0 mi SE 9.2 mph - 0.70 in Rain Heavy Rain
6:14 AM 64.4 °F 64.4 °F 100% 30.04 in 5.0 mi SE 5.8 mph - 0.08 in Rain Heavy Rain
6:34 AM 66.2 °F 64.4 °F 94% 30.04 in 4.0 mi SE 4.6 mph - 0.13 in Rain Rain
7:14 AM 66.2 °F 64.4 °F 94% 30.04 in 2.5 mi ESE 9.2 mph - 0.01 in   Drizzle
7:33 AM 66.2 °F 64.4 °F 94% 30.04 in 1.8 mi SE 5.8 mph - 0.01 in Rain Rain
7:54 AM 66.2 °F 64.4 °F 94% 30.04 in 2.0 mi ESE 6.9 mph - 0.02 in Rain Light Rain
8:14 AM 66.2 °F 64.4 °F 94% 30.04 in 2.5 mi SE 5.8 mph - N/A   Overcast
8:34 AM 66.2 °F 64.4 °F 94% 30.04 in 1.8 mi SE 3.5 mph - N/A   Light Drizzle
8:54 AM 66.2 °F 64.4 °F 94% 30.04 in 1.2 mi SSE 5.8 mph - N/A   Overcast
9:14 AM 66.2 °F 66.2 °F 100% 30.03 in 2.5 mi SSE 9.2 mph - N/A   Mostly Cloudy
9:34 AM 66.2 °F 66.2 °F 100% 30.03 in 2.5 mi South 6.9 mph - N/A   Overcast
9:54 AM 66.2 °F 66.2 °F 100% 30.04 in 3.0 mi SSE 8.1 mph - N/A   Overcast
10:14 AM 66.2 °F 66.2 °F 100% 30.04 in 1.2 mi South 5.8 mph - N/A Rain Rain
10:34 AM 66.2 °F 66.2 °F 100% 30.04 in 1.2 mi South 5.8 mph - N/A   Drizzle
10:54 AM 68.0 °F 66.2 °F 94% 30.04 in 3.0 mi SSE 4.6 mph - N/A   Light Drizzle
11:14 AM 69.8 °F 66.2 °F 88% 30.04 in 4.0 mi SSE 5.8 mph - N/A   Scattered Clouds
11:34 AM 71.6 °F 66.2 °F 83% 30.04 in 7.0 mi South 5.8 mph - N/A   Scattered Clouds
11:54 AM 71.6 °F 66.2 °F 83% 30.05 in 7.0 mi South 5.8 mph - N/A   Clear
12:14 PM 71.6 °F 66.2 °F 83% 30.05 in 10.0 mi South 8.1 mph - N/A   Scattered Clouds
12:34 PM 69.8 °F 66.2 °F 88% 30.05 in 4.0 mi SSW 6.9 mph - N/A   Mostly Cloudy
12:54 PM 69.8 °F 66.2 °F 88% 30.05 in 4.0 mi SW 5.8 mph - N/A   Light Drizzle
1:14 PM 69.8 °F 66.2 °F 88% 30.05 in 7.0 mi SW 5.8 mph - N/A   Mostly Cloudy
1:35 PM 69.8 °F 66.2 °F 88% 30.04 in 10.0 mi Calm Calm - N/A   Mostly Cloudy
1:54 PM 69.8 °F 66.2 °F 88% 30.04 in 10.0 mi Calm Calm - N/A   Scattered Clouds
2:14 PM 71.6 °F 66.2 °F 83% 30.04 in 10.0 mi Calm Calm - N/A   Scattered Clouds
2:34 PM 71.6 °F 66.2 °F 83% 30.03 in 10.0 mi North 3.5 mph - 0.01 in   Scattered Clouds
2:54 PM 73.4 °F 66.2 °F 78% 30.03 in 10.0 mi NW 4.6 mph - 0.01 in   Scattered Clouds
3:14 PM 75.2 °F 66.2 °F 73% 30.02 in 10.0 mi WNW 6.9 mph - N/A   Clear
3:34 PM 75.2 °F 66.2 °F 73% 30.02 in 10.0 mi NW 6.9 mph - N/A   Clear
3:54 PM 78.8 °F 66.2 °F 65% 30.01 in 10.0 mi NNW 5.8 mph - N/A   Clear
4:14 PM 75.2 °F 66.2 °F 73% 30.02 in 10.0 mi NW 8.1 mph - N/A   Clear
4:34 PM 73.4 °F 66.2 °F 78% 30.02 in 10.0 mi NW 8.1 mph - N/A   Scattered Clouds
4:54 PM 75.2 °F 68.0 °F 78% 30.02 in 10.0 mi North 9.2 mph - N/A   Scattered Clouds
5:34 PM 75.2 °F 66.2 °F 73% 30.02 in 10.0 mi NNW 9.2 mph - N/A   Clear
5:54 PM 75.2 °F 64.4 °F 69% 30.02 in 10.0 mi NNW 6.9 mph - N/A   Clear
6:14 PM 75.2 °F 66.2 °F 73% 30.02 in 10.0 mi NW 8.1 mph - N/A   Clear
6:34 PM 73.4 °F 66.2 °F 78% 30.02 in 10.0 mi NNW 9.2 mph - N/A   Clear
6:54 PM 69.8 °F 66.2 °F 88% 30.03 in 7.0 mi NNW 24.2 mph 27.6 mph N/A Rain Rain
7:14 PM 66.2 °F 64.4 °F 94% 30.04 in 7.0 mi NNW 12.7 mph 18.4 mph 0.17 in Rain Rain
7:34 PM 68.0 °F 66.2 °F 94% 30.04 in 7.0 mi NNW 13.8 mph 18.4 mph 0.21 in Rain Rain
7:54 PM 68.0 °F 66.2 °F 94% 30.04 in 10.0 mi NNW 10.4 mph - 0.21 in   Clear
8:14 PM 66.2 °F 66.2 °F 100% 30.03 in 10.0 mi NNW 12.7 mph - N/A   Scattered Clouds
8:34 PM 66.2 °F 66.2 °F 100% 30.03 in 10.0 mi NNW 9.2 mph - N/A   Clear
8:54 PM 66.2 °F 64.4 °F 94% 30.04 in 10.0 mi NNW 10.4 mph - N/A   Clear
9:14 PM 66.2 °F 64.4 °F 94% 30.04 in 10.0 mi NNW 12.7 mph - N/A   Scattered Clouds
9:34 PM 66.2 °F 64.4 °F 94% 30.05 in 10.0 mi NNW 12.7 mph - N/A   Mostly Cloudy
9:54 PM 66.2 °F 64.4 °F 94% 30.05 in 10.0 mi NNW 10.4 mph 16.1 mph N/A   Overcast
10:14 PM 66.2 °F 64.4 °F 94% 30.05 in 10.0 mi NNW 11.5 mph - N/A   Mostly Cloudy
10:34 PM 66.2 °F 64.4 °F 94% 30.06 in 10.0 mi NNW 11.5 mph 16.1 mph N/A   Overcast
10:54 PM 66.2 °F 64.4 °F 94% 30.06 in 10.0 mi NNW 9.2 mph - N/A   Scattered Clouds
11:14 PM 66.2 °F 64.4 °F 94% 30.06 in 10.0 mi NNW 11.5 mph - N/A   Scattered Clouds
11:34 PM 66.2 °F 60.8 °F 83% 30.06 in 10.0 mi NNW 9.2 mph 18.4 mph N/A   Scattered Clouds
11:54 PM 66.2 °F 59.0 °F 78% 30.06 in 10.0 mi North 10.4 mph - N/A   Scattered Clouds